• In Deutschland
  • Länderverzeichnis
  • Für 7 Tage
  • Wassertemperatur
  • Satellitenkarten
  • Wetterkarte
  • Widgets
  • user-avatar
    Anmelden

    Stündliche Wetter Erkrath

    Heute, 19 Oktober, Donnerstag

    Zeit Temperatur Niederschläge Wind Luftdruck Luftfeuchtigkeit
    00:00 +15°C° 0 mm 1 m/S 753 mmHg 88%
    01:00 +14°C° 0 mm 1 m/S 753 mmHg 88%
    02:00 +14°C° 0 mm 1 m/S 753 mmHg 89%
    03:00 +14°C° 0 mm 1 m/S 752 mmHg 89%
    04:00 +14°C° 0 mm 2 m/S 752 mmHg 89%
    05:00 +14°C° 0 mm 2 m/S 752 mmHg 89%
    06:00 +13°C° 0 mm 2 m/S 752 mmHg 87%
    07:00 +15°C° 0 mm 2 m/S 752 mmHg 81%
    08:00 +16°C° 0 mm 2 m/S 752 mmHg 74%
    09:00 +17°C° 0 mm 2 m/S 752 mmHg 68%
    10:00 +19°C° 0 mm 3 m/S 752 mmHg 64%
    11:00 +20°C° 0 mm 3 m/S 752 mmHg 60%
    12:00 +21°C° 0 mm 3 m/S 752 mmHg 56%
    13:00 +21°C° 0 mm 3 m/S 751 mmHg 58%
    14:00 +21°C° 0 mm 3 m/S 751 mmHg 60%
    15:00 +21°C° 0 mm 3 m/S 751 mmHg 62%
    16:00 +20°C° 0 mm 3 m/S 751 mmHg 66%
    17:00 +19°C° 0 mm 3 m/S 751 mmHg 70%
    18:00 +18°C° 0 mm 3 m/S 751 mmHg 73%
    19:00 +18°C° 0 mm 3 m/S 751 mmHg 73%
    20:00 +18°C° 0 mm 3 m/S 751 mmHg 73%
    21:00 +17°C° 0 mm 3 m/S 751 mmHg 72%
    22:00 +17°C° 0 mm 3 m/S 751 mmHg 70%
    23:00 +17°C° 0 mm 3 m/S 751 mmHg 67%

    Morgen, 20 Oktober, Freitag

    Zeit Temperatur Niederschläge Wind Luftdruck Luftfeuchtigkeit
    00:00 +17°C° 0 mm 3 m/S 751 mmHg 65%
    01:00 +17°C° 0,1 mm 4 m/S 751 mmHg 64%
    02:00 +17°C° 0,1 mm 4 m/S 751 mmHg 64%
    03:00 +17°C° 0,1 mm 4 m/S 751 mmHg 64%
    04:00 +15°C° 0,4 mm 4 m/S 751 mmHg 69%
    05:00 +15°C° 0,4 mm 4 m/S 751 mmHg 73%
    06:00 +15°C° 0,4 mm 4 m/S 751 mmHg 78%
    07:00 +15°C° 0,9 mm 5 m/S 752 mmHg 80%
    08:00 +15°C° 0,9 mm 5 m/S 752 mmHg 81%
    09:00 +15°C° 0,9 mm 5 m/S 752 mmHg 82%
    10:00 +15°C° 0,4 mm 5 m/S 752 mmHg 76%
    11:00 +16°C° 0,4 mm 5 m/S 753 mmHg 70%
    12:00 +17°C° 0,4 mm 5 m/S 753 mmHg 63%
    13:00 +16°C° 0 mm 5 m/S 753 mmHg 63%
    14:00 +16°C° 0 mm 5 m/S 753 mmHg 62%
    15:00 +17°C° 0 mm 4 m/S 753 mmHg 61%
    16:00 +15°C° 0 mm 4 m/S 754 mmHg 65%
    17:00 +14°C° 0 mm 3 m/S 754 mmHg 68%
    18:00 +13°C° 0 mm 3 m/S 755 mmHg 71%
    19:00 +12°C° 0 mm 3 m/S 755 mmHg 73%
    20:00 +13°C° 0 mm 2 m/S 755 mmHg 75%
    21:00 +12°C° 0 mm 2 m/S 755 mmHg 77%
    22:00 +13°C° 0 mm 2 m/S 755 mmHg 75%
    23:00 +12°C° 0 mm 3 m/S 754 mmHg 73%

    übermorgen, 21 Oktober, Samstag

    Zeit Temperatur Niederschläge Wind Luftdruck Luftfeuchtigkeit
    00:00 +12°C° 0 mm 3 m/S 754 mmHg 71%
    01:00 +12°C° 0 mm 3 m/S 754 mmHg 73%
    02:00 +12°C° 0 mm 3 m/S 753 mmHg 74%
    03:00 +11°C° 0 mm 3 m/S 753 mmHg 76%
    04:00 +12°C° 0 mm 4 m/S 753 mmHg 79%
    05:00 +12°C° 0 mm 4 m/S 752 mmHg 83%
    06:00 +13°C° 0 mm 4 m/S 752 mmHg 86%
    07:00 +13°C° 0,4 mm 4 m/S 752 mmHg 86%
    08:00 +14°C° 0,4 mm 4 m/S 752 mmHg 85%
    09:00 +14°C° 0,4 mm 4 m/S 752 mmHg 85%
    10:00 +15°C° 0,1 mm 4 m/S 752 mmHg 84%
    11:00 +15°C° 0,1 mm 4 m/S 752 mmHg 84%
    12:00 +15°C° 0,1 mm 4 m/S 752 mmHg 83%
    13:00 +15°C° 0 mm 4 m/S 752 mmHg 80%
    14:00 +15°C° 0 mm 4 m/S 752 mmHg 76%
    15:00 +15°C° 0 mm 4 m/S 752 mmHg 73%
    16:00 +15°C° 0,1 mm 4 m/S 752 mmHg 74%
    17:00 +14°C° 0,1 mm 4 m/S 752 mmHg 74%
    18:00 +13°C° 0,1 mm 4 m/S 753 mmHg 74%
    19:00 +13°C° 0,1 mm 4 m/S 753 mmHg 74%
    20:00 +12°C° 0,1 mm 4 m/S 753 mmHg 73%
    21:00 +12°C° 0,1 mm 5 m/S 753 mmHg 72%
    22:00 +10°C° 0 mm 5 m/S 753 mmHg 72%
    23:00 +10°C° 0 mm 5 m/S 753 mmHg 72%

    22 Oktober, Sonntag

    Zeit Temperatur Niederschläge Wind Luftdruck Luftfeuchtigkeit
    00:00 +10°C° 0 mm 5 m/S 753 mmHg 72%
    01:00 +10°C° 0 mm 5 m/S 753 mmHg 72%
    02:00 +9°C° 0 mm 5 m/S 753 mmHg 73%
    03:00 +9°C° 0 mm 6 m/S 753 mmHg 73%
    04:00 +9°C° 0 mm 5 m/S 753 mmHg 73%
    05:00 +9°C° 0 mm 5 m/S 753 mmHg 74%
    06:00 +9°C° 0 mm 5 m/S 753 mmHg 74%
    07:00 +9°C° 0 mm 6 m/S 753 mmHg 72%
    08:00 +9°C° 0 mm 6 m/S 753 mmHg 70%
    09:00 +10°C° 0 mm 6 m/S 753 mmHg 68%
    10:00 +10°C° 0,1 mm 6 m/S 753 mmHg 69%
    11:00 +10°C° 0,1 mm 6 m/S 753 mmHg 70%
    12:00 +10°C° 0,1 mm 6 m/S 753 mmHg 70%
    13:00 +10°C° 0,1 mm 6 m/S 753 mmHg 72%
    14:00 +10°C° 0,1 mm 6 m/S 753 mmHg 73%
    15:00 +10°C° 0,1 mm 6 m/S 753 mmHg 75%
    16:00 +10°C° 0,2 mm 5 m/S 754 mmHg 77%
    17:00 +9°C° 0,2 mm 5 m/S 754 mmHg 79%
    18:00 +9°C° 0,2 mm 5 m/S 754 mmHg 81%
    19:00 +9°C° 0,2 mm 5 m/S 755 mmHg 83%
    20:00 +9°C° 0,2 mm 5 m/S 755 mmHg 84%
    21:00 +9°C° 0,2 mm 5 m/S 755 mmHg 86%
    22:00 +8°C° 0,3 mm 5 m/S 756 mmHg 86%
    23:00 +8°C° 0,3 mm 4 m/S 756 mmHg 87%

    23 Oktober, Montag

    Zeit Temperatur Niederschläge Wind Luftdruck Luftfeuchtigkeit
    00:00 +8°C° 0,3 mm 4 m/S 756 mmHg 87%
    01:00 +8°C° 0,2 mm 4 m/S 757 mmHg 87%
    02:00 +8°C° 0,2 mm 4 m/S 757 mmHg 88%
    03:00 +10°C° 0,2 mm 4 m/S 757 mmHg 88%
    04:00 +8°C° 0,1 mm 4 m/S 758 mmHg 88%
    05:00 +8°C° 0,1 mm 4 m/S 758 mmHg 88%
    06:00 +8°C° 0,1 mm 4 m/S 758 mmHg 89%
    07:00 +10°C° 0 mm 4 m/S 759 mmHg 86%
    08:00 +11°C° 0 mm 4 m/S 759 mmHg 83%
    09:00 +11°C° 0 mm 4 m/S 759 mmHg 81%
    10:00 +11°C° 0,2 mm 4 m/S 760 mmHg 81%
    11:00 +12°C° 0,2 mm 4 m/S 760 mmHg 82%
    12:00 +12°C° 0,2 mm 3 m/S 760 mmHg 83%
    13:00 +12°C° 0,8 mm 3 m/S 760 mmHg 85%
    14:00 +11°C° 0,8 mm 3 m/S 760 mmHg 87%
    15:00 +11°C° 0,8 mm 3 m/S 760 mmHg 90%
    16:00 +11°C° 0,5 mm 3 m/S 760 mmHg 90%
    17:00 +12°C° 0,5 mm 3 m/S 760 mmHg 91%
    18:00 +12°C° 0,5 mm 3 m/S 760 mmHg 91%
    19:00 +12°C° 0,7 mm 3 m/S 760 mmHg 92%
    20:00 +12°C° 0,7 mm 3 m/S 760 mmHg 92%
    21:00 +12°C° 0,7 mm 3 m/S 761 mmHg 93%
    22:00 +12°C° 0,2 mm 3 m/S 761 mmHg 93%
    23:00 +12°C° 0,2 mm 3 m/S 761 mmHg 93%

    24 Oktober, Dienstag

    Zeit Temperatur Niederschläge Wind Luftdruck Luftfeuchtigkeit
    00:00 +12°C° 0,2 mm 3 m/S 761 mmHg 93%
    01:00 +12°C° 0,1 mm 3 m/S 761 mmHg 93%
    02:00 +12°C° 0,1 mm 3 m/S 761 mmHg 93%
    03:00 +13°C° 0,1 mm 3 m/S 761 mmHg 93%
    04:00 +13°C° 0,2 mm 3 m/S 761 mmHg 93%
    05:00 +14°C° 0,2 mm 2 m/S 761 mmHg 93%
    06:00 +14°C° 0,2 mm 2 m/S 761 mmHg 94%
    07:00 +14°C° 0,1 mm 2 m/S 762 mmHg 93%
    08:00 +14°C° 0,1 mm 2 m/S 762 mmHg 92%
    09:00 +14°C° 0,1 mm 2 m/S 762 mmHg 91%
    10:00 +15°C° 0 mm 2 m/S 762 mmHg 90%
    11:00 +15°C° 0 mm 2 m/S 762 mmHg 89%
    12:00 +16°C° 0 mm 2 m/S 762 mmHg 87%
    13:00 +16°C° 0 mm 2 m/S 762 mmHg 86%
    14:00 +16°C° 0 mm 2 m/S 762 mmHg 85%
    15:00 +17°C° 0 mm 2 m/S 762 mmHg 84%
    16:00 +16°C° 0 mm 2 m/S 762 mmHg 87%
    17:00 +15°C° 0 mm 2 m/S 763 mmHg 90%
    18:00 +14°C° 0 mm 2 m/S 763 mmHg 92%
    19:00 +14°C° 0 mm 2 m/S 763 mmHg 93%
    20:00 +14°C° 0 mm 2 m/S 763 mmHg 93%
    21:00 +14°C° 0 mm 2 m/S 763 mmHg 93%
    22:00 +13°C° 0 mm 2 m/S 763 mmHg 93%
    23:00 +13°C° 0 mm 2 m/S 763 mmHg 93%
    Mehr zeigen